Moses Lake, WA

3:47 AM PDT on May 29, 2017 (GMT -0700)
Grant County International

Weather History for KMWH - April, 2014

Change the Weather History Date:

Sunday, April 27, 2014

  Actual Average Record
Temperature  
Mean Temperature 53 °F 53 °F  
Max Temperature 62 °F 67 °F 79 °F (1980)
Min Temperature 44 °F 39 °F 28 °F (1999)
Degree Days  
Heating Degree Days 12 12  
Month to date heating degree days 334 410  
Since 1 July heating degree days 5479 5582  
Cooling Degree Days 0 0  
Month to date cooling degree days 0 0  
Year to date cooling degree days 0 0  
Growing Degree Days 2 (Base 50)    
Moisture  
Dew Point 32 °F    
Average Humidity 45    
Maximum Humidity 66    
Minimum Humidity 23    
Precipitation  
Precipitation 0.09 in 0.02 in 0.51 in (2002)
Month to date precipitation 0.77 0.64  
Year to date precipitation 2.63 3.36  
Sea Level Pressure  
Sea Level Pressure 29.77 in    
Wind  
Wind Speed 14 mph (SW)    
Max Wind Speed 26 mph    
Max Gust Speed 34 mph    
Visibility 10 miles    
Events Rain    
T = Trace of Precipitation, MM = Missing Value Source: NWS Daily Summary

Daily Weather History Graph

Daily Weather History Graph

Search for Another Location

Airport or City:

Trip Planner

Search our weather history database for the weather conditions in past years. The results will help you decide how hot, cold, wet, or windy it might be!

Date:

Astronomy

Apr. 27, 2014 Rise Set
Actual Time 5:47 AM PDT 8:03 PM PDT
Civil Twilight 5:14 AM PDT 8:36 PM PDT
Nautical Twilight 4:32 AM PDT 9:18 PM PDT
Astronomical Twilight 3:45 AM PDT 10:06 PM PDT
Moon 4:58 AM PDT (4/27) 6:36 PM PDT (4/27)
Length of Visible Light 15h 22m
Length of Day
14h 15m
Waning Crescent, 3% of the Moon is Illuminated
Apr 27
Waning Crescent
Apr 28
New
May 6
First Quarter
May 14
Full
May 21
Last Quarter

Hourly Weather History & Observations

Time (PDT) Temp. Windchill Dew Point Humidity Pressure Visibility Wind Dir Wind Speed Gust Speed Precip Events Conditions
12:52 AM 50.0 °F - 36.0 °F 59% 29.69 in 10.0 mi South 10.4 mph 19.6 mph 0.00 in Rain Light Rain
1:52 AM 48.2 °F - 37.4 °F 66% 29.68 in 10.0 mi South 13.8 mph - N/A Rain Light Rain
2:52 AM 48.0 °F - 37.9 °F 68% 29.66 in 10.0 mi South 12.7 mph 21.9 mph 0.01 in   Overcast
3:52 AM 48.0 °F - 37.9 °F 68% 29.66 in 10.0 mi South 10.4 mph - N/A   Overcast
4:52 AM 46.0 °F 40.2 °F 39.9 °F 79% 29.67 in 10.0 mi South 12.7 mph - 0.01 in Rain Light Rain
5:52 AM 45.0 °F 41.2 °F 39.0 °F 80% 29.67 in 10.0 mi South 6.9 mph - 0.01 in   Overcast
6:35 AM 44.1 °F 40.8 °F 41.0 °F 89% 29.69 in 5.0 mi WNW 5.8 mph - 0.02 in Rain Light Rain
6:50 AM 44.6 °F 40.7 °F 41.0 °F 87% 29.66 in 10.0 mi ESE 6.9 mph - 0.02 in   Overcast
6:52 AM 45.0 °F 39.3 °F 41.0 °F 86% 29.66 in 10.0 mi ESE 11.5 mph - 0.02 in Rain Light Rain
7:52 AM 46.0 °F 41.9 °F 42.1 °F 86% 29.70 in 10.0 mi South 8.1 mph - 0.01 in   Overcast
8:52 AM 50.0 °F - 39.0 °F 66% 29.72 in 10.0 mi West 8.1 mph - N/A   Clear
9:52 AM 54.0 °F - 32.0 °F 43% 29.73 in 10.0 mi West 12.7 mph 23.0 mph N/A   Clear
10:52 AM 55.9 °F - 28.0 °F 34% 29.75 in 10.0 mi WSW 19.6 mph 27.6 mph N/A   Scattered Clouds
11:52 AM 59.0 °F - 27.0 °F 29% 29.76 in 10.0 mi WSW 17.3 mph 26.5 mph N/A   Clear
12:52 PM 59.0 °F - 25.0 °F 27% 29.76 in 10.0 mi West 20.7 mph 29.9 mph N/A   Clear
1:52 PM 59.0 °F - 23.0 °F 25% 29.77 in 10.0 mi WSW 16.1 mph 26.5 mph N/A   Partly Cloudy
2:52 PM 60.1 °F - 27.0 °F 28% 29.78 in 10.0 mi SW 16.1 mph - N/A   Clear
3:52 PM 59.0 °F - 26.1 °F 28% 29.78 in 10.0 mi SW 17.3 mph 26.5 mph N/A   Mostly Cloudy
4:52 PM 60.1 °F - 25.0 °F 26% 29.80 in 10.0 mi SW 26.5 mph 32.2 mph N/A   Scattered Clouds
5:52 PM 59.0 °F - 21.9 °F 24% 29.82 in 10.0 mi WSW 19.6 mph 29.9 mph N/A   Clear
6:52 PM 57.0 °F - 21.9 °F 26% 29.85 in 10.0 mi WSW 19.6 mph 25.3 mph N/A   Clear
7:52 PM 52.0 °F - 26.1 °F 37% 29.88 in 10.0 mi WSW 11.5 mph - N/A   Clear
8:52 PM 50.0 °F - 28.0 °F 43% 29.91 in 10.0 mi WSW 16.1 mph - N/A   Clear
9:52 PM 48.2 °F - 28.4 °F 46% 29.93 in 10.0 mi SW 10.4 mph - N/A   Clear
10:52 PM 48.2 °F - 26.6 °F 43% 29.96 in 10.0 mi West 10.4 mph - N/A   Clear
11:52 PM 46.4 °F 41.5 °F 28.4 °F 50% 29.98 in 10.0 mi West 10.4 mph - N/A   Clear